Driggs, ID

4:54 PM MDT on April 30, 2017 (GMT -0600)
Driggs

Weather History for KDIJ - August, 2014

Change the Weather History Date:

Monday, August 11, 2014

  Actual Average (KJAC) Record (KJAC)
Temperature  
Mean Temperature 68 °F -  
Max Temperature 86 °F 81 °F 89 °F (1960)
Min Temperature 50 °F 40 °F 30 °F (1969)
Cooling Degree Days 3    
Growing Degree Days 18 (Base 50)    
Moisture  
Dew Point 46 °F    
Average Humidity 51    
Maximum Humidity 83    
Minimum Humidity 20    
Precipitation  
Precipitation 0.00 in - - ()
Sea Level Pressure  
Sea Level Pressure 30.10 in    
Wind  
Wind Speed 3 mph (SSE)    
Max Wind Speed 8 mph    
Max Gust Speed -    
Visibility 10 miles    
Events      
Averages and records for this station are not official NWS values.
T = Trace of Precipitation, MM = Missing Value Source: NWS Daily Summary

Daily Weather History Graph

Daily Weather History Graph

Search for Another Location

Airport or City:

Trip Planner

Search our weather history database for the weather conditions in past years. The results will help you decide how hot, cold, wet, or windy it might be!

Date:

Astronomy

Aug. 11, 2014 Rise Set
Actual Time 6:24 AM MDT 8:33 PM MDT
Civil Twilight 5:52 AM MDT 9:05 PM MDT
Nautical Twilight 5:13 AM MDT 9:44 PM MDT
Astronomical Twilight 4:30 AM MDT 10:26 PM MDT
Moon 8:59 PM MDT (8/11) 7:37 AM MDT (8/11)
Length of Visible Light 15h 12m
Length of Day
14h 09m
Full, 98% of the Moon is Illuminated
Aug 11
Full
Aug 17
Last Quarter
Aug 25
New
Sep 2
First Quarter
Sep 8
Full

Hourly Weather History & Observations

Time (MDT) Temp. Dew Point Humidity Pressure Visibility Wind Dir Wind Speed Gust Speed Precip Events Conditions
12:56 AM 52.9 °F 45.9 °F 77% 30.12 in 10.0 mi SSW 3.5 mph - N/A   Clear
2:56 AM 50.9 °F 45.9 °F 83% 30.12 in 10.0 mi Calm Calm - N/A   Clear
4:56 AM 50.0 °F 45.0 °F 83% 30.11 in 10.0 mi East 3.5 mph - N/A   Clear
5:56 AM 50.0 °F 43.0 °F 77% 30.11 in 10.0 mi SE 5.8 mph - N/A   Clear
6:56 AM 50.9 °F 43.0 °F 74% 30.12 in 10.0 mi Calm Calm - N/A   Clear
7:56 AM 61.9 °F 47.8 °F 60% 30.10 in 10.0 mi Calm Calm - N/A   Clear
8:56 AM 66.9 °F 46.9 °F 49% 30.14 in 10.0 mi Calm Calm - N/A   Clear
9:56 AM 72.9 °F 45.0 °F 37% 30.13 in 10.0 mi Calm Calm - N/A   Clear
11:56 AM 81.9 °F 45.0 °F 27% 30.11 in 10.0 mi SW 8.1 mph - N/A   Clear
12:56 PM 82.9 °F 41.9 °F 23% 30.11 in 10.0 mi Variable 6.9 mph - N/A   Clear
1:56 PM 82.9 °F 43.0 °F 24% 30.10 in 10.0 mi Variable 4.6 mph - N/A   Clear
2:56 PM 83.8 °F 41.9 °F 23% 30.08 in 10.0 mi SW 4.6 mph - N/A   Clear
3:56 PM 86.0 °F 39.9 °F 20% 30.06 in 10.0 mi NW 4.6 mph - N/A   Clear
4:56 PM 86.0 °F 41.0 °F 20% 30.05 in 10.0 mi Variable 5.8 mph - N/A   Clear
6:56 PM 83.8 °F 43.0 °F 24% 30.04 in 10.0 mi SW 5.8 mph - N/A   Clear
7:56 PM 79.9 °F 50.0 °F 35% 30.02 in 10.0 mi ENE 4.6 mph - N/A   Clear
8:56 PM 66.2 °F 55.4 °F 68% 30.31 in 10.0 mi SE 4.6 mph - N/A   Clear
9:56 PM 63.0 °F 50.9 °F 65% 30.06 in 10.0 mi East 8.1 mph - N/A   Clear
10:56 PM 61.9 °F 50.9 °F 67% 30.04 in 10.0 mi Calm Calm - N/A   Clear
11:56 PM 57.9 °F 50.9 °F 77% 30.04 in 10.0 mi Calm Calm - N/A   Clear